Date String (YYYY-MM-DD hh:mm:ss) UTC,Instrument flags,Ambient pressure (hPa),Sample flow (lpm),Bypass flow (lpm),Sample temperature (°C),Ambient temperature (°C),ASC tube jacket temperature (°C),LED temperature (°C),Box temperature (°C),Sample RH (%),Span deviation,Mass concentration (μg/m³),Mass concentration (μg/m³),Mass concentration (μg/m³)
DateTimeUTC,F1_M11,P_M11,Q1_M11,Q2_M11,T1_M11,T2_M11,T3_M11,T4_M11,T5_M11,U1_M11,ZSPAN_M11,X0_M11,X2_M11,X1_M11
2022-08-06 04:00:00,,0826.9,5.00,0.00,29.2,27.6,00.0,38.0,31.1,29.8,0000.0,0014.26,0005.27,0004.02
2022-08-06 04:01:00,,0826.9,4.99,0.00,29.2,27.8,00.0,38.0,31.2,29.8,0000.0,0014.12,0005.24,0004.00
2022-08-06 04:02:00,,0826.9,5.00,0.00,29.3,27.9,00.0,38.0,31.2,29.8,0000.0,0014.34,0005.28,0003.99
2022-08-06 04:03:00,,0826.9,5.00,0.00,29.3,28.1,00.0,38.0,31.3,29.9,0000.0,0014.14,0005.28,0003.98
2022-08-06 04:04:00,,0826.9,5.00,0.00,29.3,28.2,00.0,38.1,31.4,29.9,0000.0,0013.43,0005.26,0003.99
2022-08-06 04:05:00,,0826.9,5.00,0.00,29.4,28.3,00.0,38.1,31.4,29.7,0000.0,0013.42,0005.26,0003.98
2022-08-06 04:06:00,,0826.9,4.99,0.00,29.4,28.4,00.0,38.1,31.4,29.7,0000.0,0013.73,0005.27,0003.98
2022-08-06 04:07:00,,0826.9,5.00,0.00,29.5,28.5,00.0,38.1,31.5,29.5,0000.0,0015.02,0005.31,0003.98
2022-08-06 04:08:00,,0826.8,5.01,0.00,29.5,28.3,00.0,38.1,31.4,29.4,0000.0,0014.02,0005.30,0003.99
2022-08-06 04:09:00,,0826.8,5.00,0.00,29.4,27.5,00.0,38.1,31.2,29.5,0000.0,0014.13,0005.29,0004.00
2022-08-06 04:10:00,,0827.0,5.00,0.00,29.4,27.0,00.0,38.1,31.2,29.5,0000.0,0013.98,0005.30,0004.00
2022-08-06 04:11:00,,0826.9,5.01,0.00,29.3,27.0,00.0,38.1,31.1,29.6,0000.0,0013.80,0005.26,0004.01
2022-08-06 04:12:00,,0826.9,5.01,0.00,29.2,27.1,00.0,38.0,31.0,29.8,0000.0,0013.68,0005.23,0004.02
2022-08-06 04:13:00,,0826.9,4.99,0.00,29.2,27.2,00.0,38.0,31.0,29.9,0000.0,0013.60,0005.17,0004.03
2022-08-06 04:14:00,,0826.9,5.01,0.00,29.2,27.4,00.0,38.0,31.1,29.9,0000.0,0014.85,0005.18,0004.05
2022-08-06 04:15:00,,0826.8,5.00,0.00,29.3,27.6,00.0,38.0,31.2,29.9,0000.0,0015.00,0005.20,0004.05
2022-08-06 04:16:00,,0826.9,5.00,0.00,29.3,27.8,00.0,38.1,31.2,29.8,0000.0,0015.35,0005.27,0004.07
2022-08-06 04:17:00,,0826.8,4.99,0.00,29.3,28.0,00.0,38.1,31.3,29.7,0000.0,0015.80,0005.26,0004.08
2022-08-06 04:18:00,,0826.8,5.01,0.00,29.3,28.1,00.0,38.1,31.3,29.6,0000.0,0014.93,0005.24,0004.10
2022-08-06 04:19:00,,0826.8,5.00,0.00,29.4,28.2,00.0,38.1,31.4,29.6,0000.0,0015.57,0005.25,0004.10
2022-08-06 04:20:00,,0826.9,4.99,0.00,29.4,28.4,00.0,38.1,31.4,29.5,0000.0,0015.45,0005.28,0004.11
2022-08-06 04:21:00,,0826.9,5.00,0.00,29.5,28.5,00.0,38.1,31.5,29.4,0000.0,0015.65,0005.27,0004.13
2022-08-06 04:22:00,,0826.9,5.00,0.00,29.5,28.4,00.0,38.2,31.5,29.4,0000.0,0016.64,0005.27,0004.14
2022-08-06 04:23:00,,0826.9,4.99,0.00,29.5,27.8,00.0,38.1,31.3,29.3,0000.0,0017.75,0005.32,0004.15
2022-08-06 04:24:00,,0826.9,5.02,0.00,29.4,27.2,00.0,38.1,31.2,29.4,0000.0,0018.87,0005.35,0004.16
2022-08-06 04:25:00,,0826.9,4.99,0.00,29.4,27.0,00.0,38.1,31.2,29.5,0000.0,0017.71,0005.36,0004.17
2022-08-06 04:26:00,,0826.9,4.99,0.00,29.3,27.1,00.0,38.1,31.0,29.7,0000.0,0018.13,0005.38,0004.18
2022-08-06 04:27:00,,0826.9,5.01,0.00,29.2,27.2,00.0,38.0,31.0,29.8,0000.0,0018.62,0005.39,0004.18
2022-08-06 04:28:00,,0827.0,5.00,0.00,29.2,27.4,00.0,38.0,31.1,29.8,0000.0,0019.15,0005.42,0004.18
2022-08-06 04:29:00,,0826.9,5.01,0.00,29.3,27.6,00.0,38.0,31.1,29.8,0000.0,0019.30,0005.43,0004.18
2022-08-06 04:30:00,,0826.9,5.00,0.00,29.3,27.7,00.0,38.1,31.2,29.8,0000.0,0018.48,0005.39,0004.20
2022-08-06 04:31:00,,0826.9,5.00,0.00,29.3,27.9,00.0,38.1,31.2,29.8,0000.0,0018.99,0005.41,0004.20
2022-08-06 04:32:00,,0827.1,5.00,0.00,29.3,28.0,00.0,38.1,31.3,29.7,0000.0,0019.39,0005.45,0004.20
2022-08-06 04:33:00,,0827.0,4.99,0.00,29.3,28.2,00.0,38.1,31.3,29.7,0000.0,0018.44,0005.50,0004.20
2022-08-06 04:34:00,,0827.2,5.01,0.00,29.4,28.3,00.0,38.1,31.4,29.6,0000.0,0017.04,0005.49,0004.20
2022-08-06 04:35:00,,0827.0,5.00,0.00,29.4,28.4,00.0,38.1,31.4,29.6,0000.0,0016.53,0005.54,0004.20
2022-08-06 04:36:00,,0827.2,5.00,0.00,29.5,28.5,00.0,38.2,31.5,29.5,0000.0,0016.21,0005.50,0004.19
2022-08-06 04:37:00,,0827.1,5.01,0.00,29.5,28.5,00.0,38.2,31.5,29.4,0000.0,0016.28,0005.52,0004.18
2022-08-06 04:38:00,,0826.9,5.00,0.00,29.5,27.8,00.0,38.1,31.3,29.4,0000.0,0015.97,0005.53,0004.18
2022-08-06 04:39:00,,0826.9,5.01,0.00,29.4,27.2,00.0,38.1,31.2,29.5,0000.0,0014.94,0005.47,0004.19
2022-08-06 04:40:00,,0826.9,5.00,0.00,29.4,27.1,00.0,38.1,31.1,29.7,0000.0,0014.20,0005.45,0004.19
2022-08-06 04:41:00,,0826.9,5.01,0.00,29.3,27.1,00.0,38.1,31.0,29.8,0000.0,0015.34,0005.49,0004.19
2022-08-06 04:42:00,,0826.8,5.00,0.00,29.3,27.2,00.0,38.1,31.0,29.9,0000.0,0015.31,0005.50,0004.19
2022-08-06 04:43:00,,0826.8,4.99,0.00,29.3,27.4,00.0,38.1,31.1,30.0,0000.0,0015.69,0005.45,0004.19
2022-08-06 04:44:00,,0826.8,5.01,0.00,29.3,27.6,00.0,38.1,31.2,30.0,0000.0,0016.01,0005.38,0004.18
2022-08-06 04:45:00,,0827.2,4.99,0.00,29.3,27.8,00.0,38.1,31.2,30.2,0000.0,0016.49,0005.35,0004.18
2022-08-06 04:46:00,,0826.9,5.00,0.00,29.3,27.9,00.0,38.1,31.3,30.4,0000.0,0016.48,0005.31,0004.17
2022-08-06 04:47:00,,0826.8,5.00,0.00,29.3,28.1,00.0,38.1,31.3,30.6,0000.0,0016.42,0005.28,0004.17
2022-08-06 04:48:00,,0826.8,5.00,0.00,29.4,28.2,00.0,38.1,31.4,30.7,0000.0,0016.69,0005.30,0004.16
2022-08-06 04:49:00,,0826.8,5.00,0.00,29.4,28.3,00.0,38.1,31.4,30.7,0000.0,0017.17,0005.25,0004.14
2022-08-06 04:50:00,,0826.8,5.01,0.00,29.4,28.4,00.0,38.1,31.4,30.8,0000.0,0017.56,0005.25,0004.13
2022-08-06 04:51:00,,0826.7,5.00,0.00,29.5,28.5,00.0,38.2,31.5,30.8,0000.0,0018.25,0005.27,0004.11
2022-08-06 04:52:00,,0826.7,5.00,0.00,29.5,28.4,00.0,38.2,31.5,30.8,0000.0,0017.15,0005.28,0004.10
2022-08-06 04:53:00,,0826.7,4.99,0.00,29.5,27.7,00.0,38.2,31.3,31.0,0000.0,0016.07,0005.28,0004.10
2022-08-06 04:54:00,,0826.7,5.00,0.00,29.4,27.1,00.0,38.1,31.2,31.1,0000.0,0015.51,0005.29,0004.10
2022-08-06 04:55:00,,0826.7,5.00,0.00,29.4,27.0,00.0,38.1,31.1,31.1,0000.0,0016.66,0005.35,0004.10
2022-08-06 04:56:00,,0826.7,5.00,0.00,29.3,27.0,00.0,38.1,31.0,31.4,0000.0,0017.00,0005.37,0004.11
2022-08-06 04:57:00,,0826.7,5.01,0.00,29.2,27.2,00.0,38.1,31.0,31.6,0000.0,0016.56,0005.33,0004.11
2022-08-06 04:58:00,,0826.7,4.98,0.00,29.2,27.4,00.0,38.1,31.1,31.7,0000.0,0016.87,0005.34,0004.11
2022-08-06 04:59:00,,0826.7,5.00,0.00,29.2,27.5,00.0,38.1,31.2,31.9,0000.0,0016.83,0005.29,0004.11
